Weather History for Sedalia, MO

Change the Weather History Date:

Friday, April 19, 2013

  Actual Average Record
Temperature  
Mean Temperature 45 °F 58 °F  
Max Temperature 53 °F 68 °F 85 °F (1971)
Min Temperature 36 °F 47 °F 28 °F (1943)
Degree Days  
Heating Degree Days 20 8  
Month to date heating degree days 244 207  
Since 1 July heating degree days 4485 4409  
Cooling Degree Days 0 1  
Month to date cooling degree days 12 18  
Year to date cooling degree days 13 21  
Moisture  
Dew Point 27 °F    
Average Humidity 53    
Maximum Humidity 70    
Minimum Humidity 36    
Precipitation  
Precipitation 0.00 in 0.14 in 2.40 in (1970)
Month to date precipitation 4.70 2.31  
Year to date precipitation 12.37 8.52  
Sea Level Pressure  
Sea Level Pressure 29.97 in    
Wind  
Wind Speed 13 mph (WNW)    
Max Wind Speed 25 mph    
Max Gust Speed 33 mph    
Visibility 10 miles    
Events      
T = Trace of Precipitation, MM = Missing Value Source: NWS Daily Summary

Daily Weather History Graph

Daily Weather History Graph

Search for Another Location

Airport:

Trip Planner

Search our weather history database for the weather conditions in past years. The results will help you decide how hot, cold, wet, or windy it might be!

Date:

Astronomy

Apr. 19, 2013 Rise Set
Actual Time 6:30 AM CDT 7:53 PM CDT
Civil Twilight 6:02 AM CDT 8:21 PM CDT
Nautical Twilight 5:29 AM CDT 8:54 PM CDT
Astronomical Twilight 4:54 AM CDT 9:30 PM CDT
Moon 1:42 PM CDT (4/19) 2:42 AM CDT (4/19)
Length of Visible Light 14h 18m
Length of Day
13h 23m
First Quarter, 62% of the Moon is Illuminated
Apr 19
First Quarter
Apr 25
Full
May 2
Last Quarter
May 9
New
May 17
First Quarter

Hourly Weather History & Observations

Time (CDT) Temp. Windchill Dew Point Humidity Pressure Visibility Wind Dir Wind Speed Gust Speed Precip Events Conditions
12:53 AM 39.0 °F 31.0 °F 27.0 °F 62% 29.90 in 10.0 mi WNW 13.8 mph 25.3 mph N/A   Overcast
1:53 AM 37.9 °F 31.5 °F 28.9 °F 70% 29.89 in 10.0 mi WNW 9.2 mph - N/A   Overcast
2:29 AM 37.4 °F 27.2 °F 28.4 °F 70% 29.87 in 10.0 mi WNW 19.6 mph 25.3 mph N/A   Overcast
2:53 AM 37.0 °F 28.1 °F 27.0 °F 67% 29.89 in 10.0 mi WNW 15.0 mph 27.6 mph N/A   Overcast
3:53 AM 37.0 °F 26.4 °F 27.0 °F 67% 29.89 in 10.0 mi West 20.7 mph 25.3 mph N/A   Overcast
4:53 AM 36.0 °F 27.1 °F 26.1 °F 67% 29.90 in 10.0 mi WNW 13.8 mph 23.0 mph N/A   Overcast
5:15 AM 35.6 °F 26.2 °F 26.6 °F 70% 29.89 in 10.0 mi WNW 15.0 mph - N/A   Overcast
5:42 AM 35.6 °F 25.9 °F 26.6 °F 70% 29.89 in 10.0 mi West 16.1 mph - N/A   Overcast
5:53 AM 36.0 °F 26.3 °F 26.1 °F 67% 29.91 in 10.0 mi West 16.1 mph 24.2 mph N/A   Overcast
6:53 AM 36.0 °F 26.7 °F 26.1 °F 67% 29.94 in 10.0 mi West 15.0 mph 21.9 mph N/A   Overcast
7:53 AM 37.0 °F 29.3 °F 27.0 °F 67% 29.96 in 10.0 mi West 11.5 mph 20.7 mph N/A   Overcast
8:53 AM 37.9 °F 28.5 °F 26.1 °F 62% 29.96 in 10.0 mi West 17.3 mph 25.3 mph N/A   Clear
9:53 AM 39.9 °F 30.8 °F 25.0 °F 55% 29.97 in 10.0 mi West 18.4 mph 27.6 mph N/A   Clear
10:53 AM 42.1 °F 33.1 °F 26.1 °F 53% 29.98 in 10.0 mi West 20.7 mph 27.6 mph N/A   Clear
11:53 AM 45.0 °F 37.9 °F 25.0 °F 46% 29.98 in 10.0 mi West 16.1 mph 29.9 mph N/A   Clear
12:53 PM 46.9 °F - 25.0 °F 42% 29.97 in 10.0 mi WNW 20.7 mph 31.1 mph N/A   Clear
1:53 PM 48.9 °F - 26.1 °F 41% 29.97 in 10.0 mi WNW 19.6 mph 29.9 mph N/A   Clear
2:53 PM 50.0 °F - 25.0 °F 38% 29.98 in 10.0 mi West 13.8 mph 33.4 mph N/A   Clear
3:53 PM 50.0 °F - 24.1 °F 36% 29.98 in 10.0 mi WNW 16.1 mph 29.9 mph N/A   Mostly Cloudy
4:53 PM 51.1 °F - 26.1 °F 38% 29.99 in 10.0 mi WNW 17.3 mph 24.2 mph N/A   Overcast
5:53 PM 50.0 °F - 27.0 °F 41% 30.02 in 10.0 mi NW 15.0 mph 23.0 mph N/A   Overcast
6:53 PM 48.9 °F - 27.0 °F 43% 30.03 in 10.0 mi NW 13.8 mph - N/A   Overcast
7:53 PM 46.0 °F 43.1 °F 30.0 °F 54% 30.04 in 10.0 mi NW 5.8 mph - N/A   Mostly Cloudy
8:53 PM 45.0 °F 42.6 °F 26.1 °F 48% 30.06 in 10.0 mi West 4.6 mph - N/A   Clear
9:53 PM 44.1 °F 41.5 °F 27.0 °F 51% 30.09 in 10.0 mi WNW 4.6 mph - N/A   Clear
10:53 PM 42.1 °F 40.2 °F 28.0 °F 58% 30.10 in 10.0 mi NW 3.5 mph - N/A   Clear
11:53 PM 39.9 °F 36.7 °F 28.0 °F 63% 30.11 in 10.0 mi NW 4.6 mph - N/A   Clear